Weather History for Joplin, MO

Change the Weather History Date:

Thursday, November 22, 2012

  Actual Average Record
Temperature  
Mean Temperature 62 °F 45 °F  
Max Temperature 71 °F 56 °F 77 °F (1955)
Min Temperature 52 °F 35 °F 19 °F (1964)
Degree Days  
Heating Degree Days 3 20  
Month to date heating degree days 291 331  
Since 1 July heating degree days 615 583  
Cooling Degree Days 0 0  
Month to date cooling degree days 4 5  
Year to date cooling degree days 2106 1696  
Growing Degree Days 11 (Base 50)    
Moisture  
Dew Point 43 °F    
Average Humidity 53    
Maximum Humidity 64    
Minimum Humidity 45    
Precipitation  
Precipitation T in 0.12 in 2.03 in (1992)
Month to date precipitation 1.31 2.82  
Year to date precipitation 36.96 42.77  
Snow  
Snow 0.00 in - - ()
Month to date snowfall 0.0  
Snow Depth 0.00 in    
Sea Level Pressure  
Sea Level Pressure 30.02 in    
Wind  
Wind Speed 15 mph (South)    
Max Wind Speed 30 mph    
Max Gust Speed 38 mph    
Visibility 10 miles    
Events      
T = Trace of Precipitation, MM = Missing Value Source: NWS Daily Summary

Daily Weather History Graph

Daily Weather History Graph

Search for Another Location

Airport:

Trip Planner

Search our weather history database for the weather conditions in past years. The results will help you decide how hot, cold, wet, or windy it might be!

Date:

Astronomy

Nov. 22, 2012 Rise Set
Actual Time 7:04 AM CST 5:03 PM CST
Civil Twilight 6:36 AM CST 5:31 PM CST
Nautical Twilight 6:04 AM CST 6:03 PM CST
Astronomical Twilight 5:33 AM CST 6:34 PM CST
Moon 1:43 PM CST (11/22) 1:32 AM CST (11/22)
Length of Visible Light 10h 55m
Length of Day
9h 58m
Waxing Gibbous, 71% of the Moon is Illuminated
Nov 22
Waxing Gibbous
Nov 28
Full
Dec 6
Last Quarter
Dec 13
New
Dec 19
First Quarter

Hourly Weather History & Observations

Time (CST) Temp. Dew Point Humidity Pressure Visibility Wind Dir Wind Speed Gust Speed Precip Events Conditions
12:53 AM 54.0 °F 37.9 °F 55% 30.04 in 10.0 mi South 13.8 mph - N/A   Clear
1:53 AM 54.0 °F 37.9 °F 55% 30.03 in 10.0 mi South 12.7 mph - N/A   Clear
2:53 AM 53.1 °F 39.0 °F 59% 30.01 in 10.0 mi SSE 9.2 mph - N/A   Clear
3:53 AM 55.0 °F 39.9 °F 57% 30.01 in 10.0 mi South 13.8 mph 21.9 mph N/A   Clear
4:53 AM 60.1 °F 39.9 °F 47% 30.00 in 10.0 mi South 16.1 mph 24.2 mph N/A   Clear
5:53 AM 59.0 °F 39.9 °F 49% 30.00 in 10.0 mi South 16.1 mph - N/A   Clear
6:53 AM 57.0 °F 39.9 °F 53% 30.01 in 10.0 mi South 17.3 mph 23.0 mph N/A   Clear
7:53 AM 57.9 °F 39.9 °F 51% 30.01 in 10.0 mi South 19.6 mph 27.6 mph N/A   Clear
8:53 AM 60.1 °F 41.0 °F 49% 30.00 in 10.0 mi South 18.4 mph 29.9 mph N/A   Clear
9:53 AM 62.1 °F 43.0 °F 50% 30.01 in 10.0 mi South 19.6 mph 28.8 mph N/A   Clear
10:53 AM 64.0 °F 44.1 °F 48% 29.99 in 10.0 mi South 23.0 mph 31.1 mph N/A   Clear
11:53 AM 64.0 °F 45.0 °F 50% 29.97 in 10.0 mi SSW 15.0 mph 24.2 mph N/A   Clear
12:53 PM 66.9 °F 46.0 °F 47% 29.95 in 10.0 mi South 15.0 mph 24.2 mph N/A   Clear
1:53 PM 68.0 °F 46.9 °F 47% 29.93 in 10.0 mi South 19.6 mph 29.9 mph N/A   Clear
2:53 PM 69.1 °F 46.9 °F 45% 29.92 in 10.0 mi SSW 18.4 mph 28.8 mph N/A   Clear
3:53 PM 69.1 °F 46.9 °F 45% 29.92 in 10.0 mi South 20.7 mph 25.3 mph N/A   Clear
4:53 PM 66.0 °F 46.9 °F 50% 29.96 in 10.0 mi SSW 10.4 mph - N/A   Clear
5:53 PM 62.1 °F 46.9 °F 58% 30.00 in 10.0 mi South 8.1 mph - N/A   Clear
6:53 PM 62.1 °F 48.0 °F 60% 30.01 in 10.0 mi South 8.1 mph - N/A   Mostly Cloudy
7:53 PM 59.0 °F 46.9 °F 64% 30.02 in 10.0 mi South 8.1 mph - N/A   Mostly Cloudy
8:53 PM 63.0 °F 48.9 °F 60% 30.08 in 10.0 mi West 12.7 mph - 0.00 in   Overcast
9:11 PM 60.8 °F 48.2 °F 63% 30.12 in 10.0 mi North 23.0 mph 27.6 mph N/A   Overcast
9:53 PM 57.9 °F 42.1 °F 56% 30.15 in 10.0 mi North 16.1 mph - N/A   Overcast
10:53 PM 55.9 °F 39.9 °F 55% 30.21 in 10.0 mi North 15.0 mph 24.2 mph N/A   Overcast
11:53 PM 53.1 °F 37.9 °F 57% 30.24 in 10.0 mi North 15.0 mph 23.0 mph N/A   Mostly Cloudy